Weather observations for the past three days for
Rockport Aransas County Airport
Imperial (Metric)
Date Time (cdt) Wind (mph) Vis. (mi.) Weather Sky Cond. Temperature (ºF) Relative Humidity Wind Chill (°F) Heat Index (°F) Pressure Precipitation (in)
Air Dwpt 6 hour altimeter (in) sea level (mb) 1 hr 3 hr 6 hr
Max. Min.
15 00:53 SE 12 9.00 Fair CLR 86 77 90 86 75% 97 29.9 1012.8
14 23:53 SE 14 9.00 Fair CLR 86 75.9 72% 96 29.9 1012.7
14 22:53 SE 15 10.00 Fair CLR 86 75.9 72% 96 29.89 1012.3
14 21:53 E 13 10.00 A Few Clouds FEW025 86 75.9 72% 96 29.88 1011.9
14 20:53 SE 16 9.00 A Few Clouds FEW026 87.1 75.9 70% 98 29.86 1011.4
14 19:53 SE 16 8.00 Fair CLR 88 75.9 68% 99 29.85 1011.0
14 18:53 E 14 8.00 Fair CLR 90 73 96.1 90 58% 98 29.85 1010.9
14 17:53 SE 15 9.00 Fair CLR 91.9 73.9 56% 102 29.85 1010.8
14 16:53 E 15 9.00 Fair CLR 93 73.9 54% 103 29.85 1010.9
14 15:53 E 12 9.00 Fair CLR 93.9 73.9 52% 104 29.86 1011.4
14 14:53 SE 14 9.00 Fair CLR 95 73.9 51% 106 29.88 1012.0
14 13:53 E 12 9.00 Fair CLR 96.1 73 48% 106 29.9 1012.5
14 12:53 E 10 9.00 Fair CLR 95 75 95 82.9 53% 107 29.91 1012.8
14 11:53 E 7 9.00 Fair CLR 93 73.9 54% 103 29.92 1013.3
14 10:53 SE 8 9.00 Fair CLR 91.9 73.9 56% 102 29.92 1013.2
14 09:53 E 7 9.00 Fair CLR 91 75 59% 102 29.93 1013.7
14 08:53 SE 5 9.00 Partly Cloudy FEW026 SCT036 88 75.9 68% 99 29.93 1013.6
14 07:53 SE 6 9.00 A Few Clouds FEW026 87.1 75.9 70% 98 29.91 1013.0
14 06:53 SE 3 9.00 A Few Clouds FEW040 82.9 75 86 82.9 77% 90 29.9 1012.7
14 05:53 S 5 10.00 Fair CLR 84 75.9 77% 93 29.89 1012.2
14 04:53 SE 5 10.00 A Few Clouds FEW022 84 75.9 77% 93 29.89 1012.1
14 03:53 S 6 10.00 Fair CLR 84.9 75 72% 93 29.88 1012.0
14 02:53 SE 7 10.00 Fair CLR 84.9 75.9 75% 94 29.89 1012.2
14 01:53 SE 12 10.00 Fair CLR 86 77 75% 97 29.89 1012.2
14 00:53 SE 9 10.00 Partly Cloudy SCT024 86 75.9 90 86 72% 96 29.89 1012.3
13 23:53 SE 14 10.00 A Few Clouds FEW025 86 75.9 72% 96 29.89 1012.2
13 22:53 SE 13 10.00 Fair CLR 86 75.9 72% 96 29.88 1012.0
13 21:53 E 13 10.00 Fair CLR 87.1 75.9 70% 98 29.87 1011.7
13 20:53 SE 12 10.00 Fair CLR 87.1 75 67% 97 29.87 1011.4
13 19:53 E 12 9.00 Fair CLR 88 75.9 68% 99 29.85 1011.1
13 18:53 E 14 9.00 Fair CLR 90 75 95 89.1 62% 100 29.85 1010.8
13 17:53 SE 13 9.00 Fair CLR 91.9 75 58% 103 29.85 1011.0
13 16:53 E 8 9.00 Fair CLR 93 75 56% 104 29.86 1011.2
13 15:53 SE 10 9.00 Fair CLR 93 75.9 58% 106 29.87 1011.6
13 14:53 E 9 9.00 Fair CLR 93 75.9 58% 106 29.89 1012.1
13 13:53 E 8 9.00 A Few Clouds FEW110 91.9 75.9 60% 104 29.91 1012.9
13 12:53 Vrbl 6 9.00 Mostly Cloudy BKN030 91 75.9 95 84 61% 103 29.91 1013.0
13 11:53 Vrbl 6 9.00 Fair CLR 93 75.9 58% 106 29.92 1013.2
13 10:53 Calm 9.00 Mostly Cloudy SCT042 BKN049 BKN095 88 73.9 63% 97 29.93 1013.5
13 09:53 W 5 9.00 Mostly Cloudy SCT026 SCT030 BKN038 86 73.9 67% 94 29.92 1013.2
13 08:53 Vrbl 5 9.00 Overcast FEW026 BKN050 OVC065 84.9 75.9 75% 94 29.91 1013.0
13 07:53 SE 8 9.00 Partly Cloudy FEW025 SCT031 SCT038 87.1 75.9 70% 98 29.89 1012.2
13 06:53 S 5 9.00 Fair CLR 84 75.9 84.9 84 77% 93 29.87 1011.6
13 05:53 SE 10 10.00 Mostly Cloudy SCT022 BKN028 84 77 80% 94 29.85 1011.1
13 04:53 SE 8 10.00 A Few Clouds FEW095 84 75 74% 92 29.85 1010.9
13 03:53 SE 7 10.00 Fair CLR 84 75 74% 92 29.86 1011.2
13 02:53 SE 7 10.00 Partly Cloudy SCT024 84.9 75.9 75% 94 29.85 1011.0
13 01:53 SE 9 10.00 A Few Clouds FEW022 84.9 75.9 75% 94 29.86 1011.4
13 00:53 SE 8 10.00 Mostly Cloudy BKN024 84.9 75.9 87.1 84.9 75% 94 29.88 1012.0
12 23:53 SE 8 10.00 Fair CLR 84.9 75 72% 93 29.89 1012.2
12 22:53 E 10 10.00 Fair CLR 84.9 75.9 75% 94 29.88 1012.1
12 21:53 SE 9 10.00 A Few Clouds FEW024 84.9 75.9 75% 94 29.86 1011.4
12 20:53 E 9 10.00 A Few Clouds FEW026 86 75.9 72% 96 29.86 1011.4
12 19:53 E 8 9.00 Partly Cloudy SCT028 86 75.9 72% 96 29.86 1011.3
12 18:53 E 9 9.00 Fair CLR 87.1 78.1 95 82.9 75% 100 29.86 1011.1 0.01
12 17:53 E 9 8.00 Light Rain SCT044 SCT065 BKN080 86 79 80% 100 29.85 1010.9 0.01
12 16:53 E 5 8.00 Thunderstorm in Vicinity Light Rain SCT080 BKN120 87.1 78.1 75% 100 29.9 1012.5
12 15:53 SE 12 9.00 A Few Clouds FEW100 91.9 73.9 56% 102 29.87 1011.6
12 14:53 SE 15 9.00 Fair CLR 95 75 53% 107 29.88 1011.9
12 13:53 SE 10 9.00 Fair CLR 93 75.9 58% 106 29.89 1012.4
12 12:53 SE 12 9.00 A Few Clouds FEW033 93 75 93.9 81 56% 104 29.9 1012.7
12 11:53 W 6 9.00 Mostly Cloudy FEW029 BKN065 91 75.9 61% 103 29.9 1012.8
12 10:53 NE 9 9.00 Mostly Cloudy SCT030 BKN040 BKN060 90 75 62% 100 29.91 1013.0
12 09:53 Vrbl 3 9.00 Partly Cloudy SCT031 SCT060 90 75 62% 100 29.91 1012.9
12 08:53 Vrbl 3 8.00 Partly Cloudy SCT070 86 75.9 72% 96 29.91 1012.9
12 06:53 S 3 9.00 Fair CLR 81 75 84.9 80.1 82% 87 29.88 1011.9
12 05:53 S 3 10.00 Fair CLR 82.9 75 77% 90 29.87 1011.5
12 04:53 S 6 10.00 Partly Cloudy SCT024 84 75 74% 92 29.85 1011.0
12 03:53 SE 7 10.00 Mostly Cloudy SCT022 BKN028 84.9 75.9 75% 94 29.85 1010.9
12 02:53 SE 7 10.00 Mostly Cloudy SCT020 BKN028 84.9 77 77% 95 29.85 1010.8
12 01:53 S 7 10.00 A Few Clouds FEW022 84.9 75.9 75% 94 29.86 1011.1
Date Time (cdt) Wind (mph) Vis. (mi.) Weather Sky Cond. Air Dwpt Max. Min. Relative Humidity Wind Chill (°F) Heat Index (°F) altimeter (in) sea level (mb) 1 hr 3 hr 6 hr
6 hour
Temperature (ºF) Pressure Precipitation (in)